This demonstration page uses our WeatherBlox Daily Observations layout. Learn more.

Left ArrowRight Arrow

44.8408, -93.29828

Hourly Observations for July 27, 2017

Temp ( °F °C ) Dew Point ( °F °C ) Humidity (%) Winds ( mph kmh ) Pressure ( in mb ) Visibility ( mi km ) Precip ( " mm )
12:53 am 00:53 Clear 69 20.6 63 17.2 81 81 NW 3 6 30.02 1017 10 16 0.00 0.00
1:53 am 01:53 Clear 70 21.1 63 17.2 79 79 NNW 5 7 30.02 1017 10 16 0.00 0.00
2:53 am 02:53 Clear 69 20.6 62 16.7 78 78 NNW 6 9 30.03 1017 10 16 0.00 0.00
3:53 am 03:53 Clear 68 20 61 16.1 78 78 N 7 11 30.03 1017 10 16 0.00 0.00
4:53 am 04:53 Clear 68 20 60 15.6 76 76 N 8 13 30.04 1017 10 16 0.00 0.00
5:53 am 05:53 Clear 67 19.4 60 15.6 79 79 N 6 9 30.04 1017 10 16 0.00 0.00
6:53 am 06:53 Sunny 68 20 60 15.6 76 76 N 6 9 30.05 1018 10 16 0.00 0.00
7:53 am 07:53 Sunny 71 21.7 61 16.1 71 71 Calm 30.06 1018 10 16 0.00 0.00
8:53 am 08:53 Sunny 75 23.9 61 16.1 62 62 NE 5 7 30.06 1018 10 16 0.00 0.00
9:53 am 09:53 Sunny 78 25.6 61 16.1 56 56 NNE 6 9 30.06 1018 10 16 0.00 0.00
10:53 am 10:53 Sunny 80 26.7 60 15.6 51 51 Calm 30.07 1018 10 16 0.00 0.00
11:53 am 11:53 Mostly Sunny 82 27.8 59 15 46 46 Calm 30.06 1018 10 16 0.00 0.00
12:53 pm 12:53 Partly Cloudy 84 28.9 58 14.4 41 41 VRB 3 6 30.06 1018 10 16 0.00 0.00
1:53 pm 13:53 Partly Cloudy 84 28.9 59 15 43 43 NE 9 15 30.05 1018 10 16 0.00 0.00
2:53 pm 14:53 Partly Cloudy 84 28.9 57 13.9 40 40 NNE 9 15 30.04 1017 10 16 0.00 0.00
3:53 pm 15:53 Mostly Cloudy 83 28.3 57 13.9 41 41 NNE 10 17 30.03 1017 10 16 0.00 0.00
4:53 pm 16:53 Mostly Cloudy 85 29.4 56 13.3 37 37 NNE 8 13 30.01 1016 10 16 0.00 0.00
5:53 pm 17:53 Partly Cloudy 84 28.9 56 13.3 38 38 N 9 15 30.00 1016 10 16 0.00 0.00
6:53 pm 18:53 Mostly Sunny 83 28.3 56 13.3 40 40 NE 9 15 30.00 1016 10 16 0.00 0.00
7:53 pm 19:53 Mostly Sunny 82 27.8 57 13.9 42 42 NNE 8 13 30.00 1016 10 16 0.00 0.00
8:53 pm 20:53 Mostly Clear 78 25.6 58 14.4 50 50 NNE 6 9 30.00 1016 10 16 0.00 0.00
9:53 pm 21:53 Mostly Clear 76 24.4 58 14.4 54 54 NNE 6 9 30.02 1017 10 16 0.00 0.00
10:53 pm 22:53 Mostly Clear 74 23.3 59 15 60 60 NNE 5 7 30.02 1017 10 16 0.00 0.00
11:53 pm 23:53 Mostly Clear 74 23.3 60 15.6 62 62 NE 3 6 30.03 1017 10 16 0.00 0.00

Powered by AerisWeather